Temperature
3 3 2 3 3 3 3 3 2 2 2 2 2 2 2 2 2 2 3 3 3 4 4 4 5 6 7 8 8 9 9 9 10 10 11 11 12 12 12 12 12 12 12
2 2 2 2 2 2 2 1 -1 -2 -2 -2 -1 -1 -0 0 1 1 1 1 2 2 2 3 3 4 5 6 7 8 8 9 9 9 9 10 10 11 12 12 13 13 12
0 -0 -0 -0 -0 0 -0 -1 -2 -2 -2 -2 -2 -2 -2 -2 -2 -1 -0 0 1 1 2 2 2 2 3 4 5 6 6 7 9 9 9 9 10 10 11 12 12 12 12
-0 -1 -1 -2 -2 -2 -3 -3 -4 -4 -4 -3 -3 -3 -4 -4 -5 -5 -4 -2 -1 0 1 1 1 1 2 2 3 4 5 5 6 8 8 8 9 10 10 11 11 11 11
-1 -2 -3 -3 -4 -4 -5 -4 -4 -4 -4 -4 -4 -4 -5 -5 -6 -6 -6 -6 -5 -4 -2 -1 -1 -1 -0 1 1 2 3 4 5 7 7 8 8 9 10 10 10 11 11
-1 -2 -3 -4 -5 -5 -5 -4 -5 -6 -6 -5 -5 -6 -7 -7 -7 -7 -7 -7 -6 -6 -5 -4 -4 -3 -2 -2 -0 1 2 4 4 5 6 7 7 8 9 9 10 10 10
-2 -3 -4 -4 -5 -6 -6 -5 -6 -7 -8 -7 -6 -7 -8 -8 -8 -8 -7 -7 -6 -6 -6 -5 -5 -5 -4 -4 -3 -1 1 2 3 5 6 6 7 8 9 9 9 9 9
-3 -4 -4 -5 -6 -7 -7 -6 -7 -7 -8 -8 -8 -8 -8 -9 -9 -8 -8 -7 -7 -7 -6 -6 -6 -5 -5 -4 -3 -2 -0 1 3 5 5 5 6 6 8 9 9 8 8
-3 -4 -4 -5 -6 -7 -8 -8 -8 -8 -8 -9 -9 -9 -9 -9 -9 -9 -8 -7 -7 -7 -7 -6 -6 -5 -4 -3 -3 -2 -1 1 2 3 4 4 5 5 7 8 8 8 8
-4 -5 -6 -6 -7 -8 -9 -9 -9 -10 -10 -10 -10 -10 -10 -10 -9 -9 -8 -8 -8 -8 -7 -6 -5 -5 -4 -3 -2 -2 -1 -0 1 2 3 4 4 5 7 8 8 8 8
-5 -5 -6 -7 -8 -8 -9 -10 -10 -10 -10 -11 -11 -11 -10 -10 -10 -9 -9 -8 -8 -8 -7 -6 -5 -5 -5 -4 -3 -2 -1 -1 0 1 2 3 4 5 5 6 7 7 7
-5 -6 -7 -7 -8 -8 -9 -10 -11 -11 -11 -11 -11 -11 -11 -10 -10 -10 -10 -9 -9 -8 -8 -6 -6 -5 -5 -5 -3 -2 -1 -1 0 1 2 2 2 2 3 5 6 6 6
-6 -7 -7 -8 -9 -9 -9 -10 -10 -11 -11 -11 -11 -11 -11 -11 -11 -10 -10 -10 -9 -9 -8 -7 -6 -6 -6 -5 -5 -3 -2 -1 -1 -0 0 0 0 1 3 4 5 6 6
-7 -8 -8 -9 -10 -10 -10 -10 -11 -12 -12 -12 -12 -12 -12 -12 -12 -11 -11 -10 -10 -9 -8 -8 -7 -6 -6 -6 -5 -5 -4 -3 -2 -1 -1 -1 -1 0 1 2 2 3 5
-8 -9 -9 -10 -10 -10 -11 -11 -11 -12 -13 -13 -13 -13 -13 -13 -12 -12 -11 -11 -11 -10 -9 -9 -8 -7 -6 -6 -6 -5 -5 -5 -4 -4 -3 -2 -1 0 0 1 1 1 2
-9 -9 -10 -10 -11 -11 -12 -12 -12 -13 -13 -13 -13 -13 -13 -13 -13 -13 -12 -12 -11 -11 -10 -9 -9 -8 -7 -7 -7 -7 -6 -6 -5 -5 -5 -4 -2 -2 -1 -1 -1 0 1
-9 -10 -10 -11 -11 -12 -12 -12 -13 -13 -13 -13 -14 -14 -14 -14 -13 -14 -13 -13 -12 -11 -11 -10 -10 -9 -8 -8 -8 -8 -7 -7 -6 -6 -6 -5 -4 -4 -3 -2 -2 -2 -1
-9 -10 -10 -11 -11 -12 -12 -13 -13 -13 -13 -13 -14 -14 -14 -14 -14 -14 -14 -13 -13 -12 -12 -11 -11 -10 -9 -8 -8 -8 -9 -8 -8 -7 -7 -6 -6 -6 -5 -4 -4 -3 -3
-10 -10 -11 -11 -11 -12 -12 -13 -13 -13 -14 -14 -14 -14 -14 -14 -15 -15 -14 -14 -13 -13 -12 -12 -11 -10 -10 -9 -9 -8 -9 -9 -8 -8 -8 -8 -8 -8 -7 -6 -5 -5 -5
-9 -10 -10 -11 -11 -12 -12 -13 -13 -14 -14 -14 -14 -14 -15 -15 -15 -15 -15 -14 -14 -13 -13 -12 -12 -11 -10 -10 -9 -9 -9 -9 -9 -9 -8 -8 -8 -9 -9 -7 -7 -7 -6
-9 -10 -10 -10 -11 -12 -12 -13 -13 -14 -14 -14 -14 -14 -14 -15 -15 -15 -15 -14 -14 -14 -13 -13 -13 -12 -11 -11 -10 -9 -9 -9 -10 -10 -9 -9 -9 -9 -10 -9 -9 -9 -9
-9 -9 -10 -10 -11 -12 -13 -13 -14 -14 -14 -14 -14 -14 -14 -15 -15 -15 -14 -14 -14 -14 -14 -14 -14 -13 -12 -11 -11 -10 -10 -10 -10 -10 -10 -9 -10 -11 -11 -10 -10 -10 -10
-9 -9 -10 -10 -11 -12 -13 -13 -14 -14 -14 -14 -14 -14 -14 -14 -15 -14 -14 -14 -14 -14 -15 -15 -14 -14 -13 -12 -11 -11 -11 -11 -10 -10 -10 -11 -10 -11 -11 -11 -10 -10 -10
-9 -9 -10 -10 -11 -11 -12 -13 -13 -14 -14 -14 -14 -14 -14 -14 -14 -14 -14 -14 -15 -15 -15 -14 -15 -14 -14 -13 -12 -12 -12 -11 -11 -11 -11 -12 -12 -12 -12 -12 -12 -11 -11
-9 -9 -10 -10 -11 -11 -12 -13 -13 -14 -14 -14 -13 -13 -14 -14 -14 -14 -14 -14 -14 -15 -14 -14 -15 -14 -14 -13 -12 -12 -12 -12 -11 -12 -12 -12 -12 -12 -12 -13 -13 -13 -13
-9 -9 -10 -10 -10 -11 -12 -12 -13 -13 -13 -13 -13 -13 -14 -15 -15 -15 -14 -14 -15 -15 -15 -15 -14 -14 -14 -13 -13 -13 -13 -13 -13 -13 -14 -14 -13 -13 -14 -14 -14 -14 -14
Wind_Speed
11 13 15 15 17 17 17 18 18 18 15 13 14 13 13 11 9 11 16 19 20 21 16 9 10 11 11 10 9 9 9 6 5 4 5 6 7 7 7 7 6 6 7
14 16 17 17 20 19 18 18 17 15 14 14 15 12 12 11 9 13 16 18 20 20 17 11 11 11 12 12 9 9 7 5 5 5 3 3 4 5 6 6 6 7 5
11 13 14 16 19 20 19 17 16 15 15 17 14 12 12 10 9 11 12 17 20 19 18 15 10 11 10 10 10 9 9 8 7 7 6 4 5 2 2 3 5 5 5
9 12 15 16 19 18 18 17 16 14 15 17 15 17 13 13 14 12 12 14 19 18 17 16 13 10 10 9 10 10 9 10 9 6 7 5 4 4 2 2 2 3 5
9 12 13 14 16 15 15 17 17 14 14 14 16 14 13 13 13 13 14 13 13 15 16 16 13 10 10 10 11 11 11 10 10 8 5 3 3 4 4 3 3 2 3
10 12 11 12 13 14 15 17 17 16 15 16 17 15 14 14 14 15 14 13 11 10 13 17 14 13 13 13 12 11 13 12 12 9 7 6 5 5 4 4 3 4 3
9 11 11 14 15 14 17 18 18 17 15 16 16 15 14 13 14 14 13 14 12 11 14 16 16 16 15 15 13 12 13 13 15 10 7 8 8 5 5 5 3 3 2
8 10 10 14 15 14 17 18 17 17 16 16 16 15 14 11 11 13 14 13 11 12 15 14 16 16 17 17 15 13 13 12 14 12 6 7 10 6 5 6 5 3 1
9 9 10 14 15 14 15 17 17 16 16 15 15 14 13 12 12 15 14 12 12 13 13 15 18 18 19 18 16 13 13 12 13 12 9 8 9 7 6 5 5 6 5
9 9 9 12 13 13 13 15 16 15 15 14 12 11 13 13 13 13 14 14 15 16 17 18 19 19 19 19 17 14 13 12 10 7 6 5 5 5 4 5 5 4 5
11 8 9 11 12 12 12 15 15 15 15 15 14 13 13 13 14 14 15 16 16 17 18 19 19 19 19 17 15 14 13 12 7 1 3 3 1 2 2 4 5 4 4
10 7 7 9 11 11 11 12 13 13 14 14 13 13 14 15 15 15 16 16 17 17 18 18 19 19 18 17 16 13 11 9 3 4 6 7 6 4 3 1 5 6 5
11 7 7 9 10 11 10 11 11 12 13 13 13 13 14 15 15 16 17 17 17 17 18 17 18 19 18 16 18 18 14 8 4 2 3 3 2 3 2 3 3 2 3
11 10 10 9 10 11 10 11 11 11 12 13 13 13 14 15 15 15 16 17 17 17 18 16 16 18 17 13 17 18 17 13 12 10 7 6 1 2 3 3 2 1 2
12 11 11 10 11 11 12 12 12 11 12 13 13 14 14 14 15 15 16 16 16 17 18 15 14 16 16 13 14 14 15 14 13 11 9 9 12 10 5 3 1 1 1
13 12 13 12 12 11 13 13 12 12 12 13 13 15 15 15 14 15 16 15 15 16 17 16 14 15 14 20 21 14 10 11 12 11 12 12 15 16 18 18 15 12 6
12 12 12 11 10 10 12 12 13 12 12 13 13 14 15 15 15 15 15 15 14 15 15 15 15 14 17 25 21 16 9 9 11 11 10 10 12 14 14 19 22 22 22
10 10 10 11 9 9 10 11 11 11 12 12 13 13 14 15 15 14 14 14 12 12 12 12 14 14 17 27 22 12 7 8 9 9 7 8 10 10 12 12 13 15 16
6 7 7 8 9 9 10 11 11 11 12 12 13 13 13 14 14 14 14 14 12 12 11 11 12 14 16 25 25 12 5 5 7 8 7 9 8 15 16 13 13 14 14
7 7 7 8 8 9 9 10 11 11 12 13 14 13 13 13 12 13 12 13 13 13 13 12 11 13 14 21 24 15 5 7 8 8 9 13 16 20 20 13 12 12 10
8 8 8 8 8 9 9 10 11 11 13 13 13 13 13 12 11 11 11 12 12 13 12 12 12 12 15 18 22 20 8 5 6 7 8 9 20 22 22 17 11 11 10
9 8 8 9 9 8 9 11 12 13 13 13 13 13 13 13 11 10 10 11 11 10 10 10 11 12 13 17 20 20 15 8 5 4 5 9 21 22 21 16 16 16 13
9 7 8 10 9 8 9 11 13 13 13 14 14 13 13 12 9 9 9 9 9 9 9 9 10 11 12 14 21 18 18 16 6 1 6 14 18 17 15 18 19 15 9
8 9 10 10 11 10 11 12 13 13 13 14 14 14 13 13 9 9 8 8 8 9 9 7 8 10 11 11 10 8 9 15 7 6 11 15 15 14 13 12 11 9 8
9 9 9 11 12 12 13 14 13 13 14 15 15 14 13 12 10 10 9 9 9 12 11 7 7 8 10 15 16 12 10 12 9 8 7 6 7 8 7 7 7 7 7
8 10 11 12 13 13 15 14 14 13 14 15 14 13 13 12 12 11 12 16 15 19 19 16 13 10 15 20 16 16 17 15 14 9 7 7 7 7 7 6 6 6 7
Wind_Direction
344 355 357 353 351 352 354 355 350 350 349 355 346 340 334 329 327 324 333 331 332 332 332 330 324 323 317 312 309 303 286 269 237 242 263 255 239 233 228 227 225 223 221
349 355 354 354 355 352 350 353 350 349 352 358 339 331 325 323 326 329 329 332 334 331 333 331 324 322 319 314 317 315 301 274 219 218 229 278 282 250 233 222 218 224 215
340 348 351 357 356 351 347 344 344 348 353 357 341 335 330 328 332 334 334 335 334 336 333 328 326 322 316 313 317 312 308 294 273 222 208 205 230 263 264 224 222 227 224
339 348 352 356 355 345 338 337 340 347 356 355 346 342 343 342 340 336 332 330 330 330 330 329 325 316 311 311 311 312 306 295 283 263 233 226 199 195 228 260 237 234 233
344 348 348 355 348 341 346 347 345 348 357 354 345 341 339 341 336 333 331 328 326 329 330 326 317 309 310 309 307 307 299 292 280 268 248 220 241 235 186 213 236 254 245
342 343 343 351 345 349 354 346 342 343 349 351 342 342 340 339 334 333 333 328 327 329 331 330 324 320 317 311 304 298 292 289 275 261 246 225 204 203 182 182 205 224 247
333 337 343 350 349 355 356 348 341 340 350 352 341 340 342 337 332 331 327 318 324 327 330 330 327 320 312 306 300 293 287 283 271 253 249 250 235 198 176 164 167 205 251
328 333 348 351 349 355 355 348 343 342 347 347 339 338 343 339 335 326 316 310 318 323 326 324 316 311 306 300 295 288 280 277 269 253 248 269 253 222 188 163 145 144 250
331 338 356 356 352 353 353 343 340 338 339 341 336 335 337 337 332 323 314 316 323 322 323 318 313 308 303 296 287 285 278 275 270 252 227 234 254 233 207 153 147 150 172
340 352 3 355 352 349 350 340 337 335 334 337 334 332 330 331 329 325 322 324 326 325 324 321 316 312 308 302 292 282 279 274 272 246 211 196 228 224 220 156 136 138 145
346 353 1 354 347 346 353 343 339 338 339 338 335 333 332 332 332 330 327 325 322 322 323 324 322 324 325 321 310 290 268 262 241 146 28 37 257 145 185 142 140 134 128
338 345 358 347 342 344 351 344 340 339 338 335 334 334 333 334 333 330 327 324 322 321 323 326 329 332 338 346 346 337 315 282 234 93 56 30 7 24 8 214 160 142 143
335 344 353 342 337 337 342 340 338 337 337 335 334 333 333 333 331 329 329 327 326 325 327 332 336 337 342 1 5 3 359 348 350 48 100 55 358 316 39 19 28 83 120
333 343 347 339 335 335 338 336 335 335 335 335 333 332 332 331 328 329 330 330 330 329 328 335 341 340 339 3 17 9 8 9 23 20 31 23 69 181 77 57 36 21 124
338 345 344 341 338 338 340 337 335 333 335 334 333 333 331 329 329 331 334 333 334 333 333 333 344 346 341 356 28 16 7 4 18 14 24 27 32 46 88 109 91 100 147
339 346 342 341 339 341 340 335 331 330 333 332 329 330 331 331 331 333 336 335 336 337 337 337 341 345 340 355 23 26 10 2 13 15 18 22 26 38 53 67 70 67 64
341 340 338 336 333 337 336 331 327 328 331 330 327 328 329 331 333 336 337 336 335 337 339 337 339 340 341 355 8 26 19 17 20 19 20 27 29 36 43 50 51 54 56
334 329 332 330 325 328 330 326 324 326 329 330 328 328 330 331 332 337 338 335 334 334 335 334 338 338 346 352 4 29 27 32 27 22 27 35 35 53 58 52 45 44 47
317 315 317 313 317 322 327 326 323 326 328 331 330 329 329 331 333 339 337 336 335 337 337 336 338 341 347 351 355 26 17 19 17 11 22 64 53 61 61 55 49 43 40
317 313 316 315 317 319 323 324 323 323 326 329 329 326 327 329 333 337 331 333 336 339 339 340 344 344 344 350 356 28 18 25 20 11 15 48 66 66 62 57 54 49 47
318 322 320 316 314 314 320 321 319 317 320 322 323 324 324 322 333 334 328 328 331 335 336 342 347 345 343 347 354 8 32 46 45 29 18 39 70 63 57 56 58 65 60
326 322 319 317 313 312 317 316 312 313 315 317 316 317 317 318 322 325 323 325 327 330 329 341 347 344 342 342 348 1 24 49 69 57 36 56 66 63 59 56 54 56 54
323 321 316 313 313 311 313 309 306 309 313 314 310 308 308 308 306 316 316 320 322 324 323 342 345 337 336 337 341 1 17 9 19 340 116 87 72 62 54 53 53 49 47
330 329 323 318 315 315 311 305 303 307 309 308 307 306 304 306 303 306 305 306 308 310 314 334 333 328 327 326 337 360 357 2 9 66 85 77 72 68 58 54 52 48 53
330 328 321 315 310 312 311 308 308 308 305 306 307 307 305 302 295 293 294 297 297 298 313 323 320 319 321 320 344 1 3 14 36 86 73 59 61 59 59 58 54 52 50
327 324 318 313 311 314 311 308 307 306 303 305 306 307 308 306 307 304 297 294 302 314 319 320 318 318 321 328 347 8 1 21 41 54 50 49 49 51 49 49 50 49 51
Height
1592 1588 1582 1576 1570 1564 1557 1551 1545 1539 1533 1526 1520 1514 1509 1505 1501 1497 1494 1490 1485 1481 1477 1474 1471 1469 1467 1464 1463 1462 1463 1463 1465 1465 1463 1464 1465 1465 1466 1468 1469 1471 1473
1590 1587 1582 1575 1569 1563 1555 1548 1541 1535 1529 1524 1519 1514 1508 1504 1500 1494 1489 1485 1480 1477 1473 1468 1465 1463 1461 1458 1456 1456 1455 1456 1458 1459 1459 1458 1458 1456 1458 1460 1462 1464 1466
1592 1586 1581 1576 1570 1564 1556 1549 1543 1537 1530 1522 1516 1510 1504 1500 1495 1489 1484 1480 1475 1471 1468 1464 1460 1457 1455 1451 1449 1449 1449 1448 1449 1451 1454 1453 1451 1450 1451 1452 1453 1456 1458
1590 1586 1580 1573 1567 1562 1556 1549 1542 1536 1529 1522 1515 1509 1503 1497 1491 1486 1481 1476 1471 1468 1463 1459 1455 1452 1449 1444 1442 1441 1441 1440 1440 1443 1445 1447 1447 1447 1446 1446 1447 1449 1451
1589 1585 1579 1572 1565 1558 1552 1545 1538 1532 1526 1520 1514 1508 1503 1498 1492 1486 1480 1475 1469 1462 1457 1453 1450 1446 1441 1437 1435 1435 1434 1432 1433 1435 1437 1438 1439 1440 1441 1441 1442 1444 1445
1588 1583 1577 1570 1562 1556 1549 1541 1535 1530 1524 1519 1513 1507 1502 1496 1490 1484 1477 1471 1466 1461 1455 1449 1443 1438 1434 1431 1428 1426 1425 1424 1424 1425 1427 1429 1431 1432 1433 1435 1437 1439 1440
1586 1580 1573 1565 1558 1552 1547 1539 1534 1530 1524 1518 1511 1505 1500 1494 1488 1482 1476 1470 1464 1458 1451 1444 1438 1433 1429 1425 1421 1417 1416 1416 1416 1416 1417 1419 1422 1425 1426 1429 1431 1433 1435
1585 1579 1572 1565 1559 1552 1546 1539 1533 1528 1522 1516 1510 1503 1498 1492 1486 1481 1476 1471 1465 1459 1452 1445 1438 1431 1425 1419 1414 1409 1408 1407 1406 1406 1409 1410 1413 1418 1419 1421 1424 1428 1430
1584 1578 1571 1564 1559 1551 1546 1539 1533 1527 1521 1514 1508 1502 1496 1490 1484 1478 1474 1469 1464 1458 1452 1444 1435 1428 1421 1415 1409 1404 1401 1399 1398 1397 1400 1403 1404 1409 1412 1413 1417 1422 1424
1583 1576 1569 1563 1558 1551 1545 1540 1534 1527 1520 1513 1507 1501 1495 1488 1482 1475 1469 1464 1459 1453 1447 1441 1433 1425 1417 1409 1403 1398 1394 1392 1391 1391 1392 1395 1398 1400 1403 1406 1409 1414 1417
1581 1574 1567 1562 1557 1549 1543 1539 1532 1526 1519 1512 1506 1500 1494 1487 1479 1472 1466 1460 1454 1448 1442 1436 1429 1421 1413 1404 1396 1392 1388 1386 1386 1386 1386 1388 1391 1393 1397 1401 1404 1407 1411
1579 1572 1566 1560 1554 1546 1540 1535 1530 1524 1518 1511 1504 1498 1492 1484 1477 1470 1463 1457 1451 1445 1440 1434 1427 1419 1410 1401 1391 1386 1383 1383 1384 1383 1383 1382 1386 1391 1394 1398 1401 1402 1406
1576 1569 1562 1557 1552 1545 1538 1532 1527 1522 1516 1510 1503 1495 1489 1482 1475 1468 1461 1455 1449 1443 1436 1431 1425 1418 1410 1402 1391 1384 1379 1379 1381 1383 1382 1382 1384 1387 1390 1393 1395 1398 1402
1574 1567 1560 1555 1550 1544 1538 1531 1525 1519 1513 1507 1500 1493 1486 1479 1473 1467 1460 1453 1447 1441 1435 1429 1424 1418 1411 1403 1396 1390 1383 1379 1376 1376 1377 1378 1381 1383 1385 1389 1393 1396 1398
1571 1565 1559 1553 1548 1543 1536 1530 1524 1518 1511 1504 1498 1490 1484 1478 1471 1465 1458 1452 1446 1440 1434 1429 1423 1418 1412 1406 1399 1395 1391 1386 1381 1380 1375 1376 1378 1381 1382 1386 1389 1391 1394
1569 1562 1557 1551 1545 1540 1534 1528 1521 1515 1509 1503 1496 1489 1482 1476 1469 1463 1456 1450 1445 1439 1434 1429 1424 1419 1414 1409 1404 1397 1394 1391 1386 1383 1380 1378 1379 1379 1379 1381 1384 1386 1391
1567 1561 1555 1549 1544 1538 1532 1526 1519 1514 1508 1502 1495 1488 1482 1475 1468 1462 1456 1450 1444 1438 1434 1429 1425 1420 1415 1411 1406 1401 1396 1392 1389 1386 1385 1383 1382 1381 1380 1382 1384 1385 1388
1565 1560 1554 1548 1542 1536 1530 1524 1519 1513 1507 1500 1494 1488 1481 1475 1468 1462 1456 1450 1444 1439 1434 1430 1426 1421 1416 1412 1408 1404 1400 1397 1394 1392 1389 1388 1387 1389 1388 1387 1387 1385 1386
1563 1558 1552 1546 1540 1534 1528 1523 1517 1512 1506 1499 1493 1487 1481 1475 1468 1463 1456 1451 1446 1440 1436 1432 1427 1422 1418 1414 1410 1405 1402 1400 1398 1395 1394 1393 1392 1391 1389 1387 1386 1387 1389
1561 1555 1549 1544 1538 1532 1527 1521 1516 1510 1504 1499 1493 1487 1481 1475 1469 1464 1458 1453 1448 1443 1438 1433 1429 1424 1419 1415 1412 1409 1405 1402 1401 1399 1397 1395 1393 1391 1389 1388 1389 1392 1394
1559 1554 1548 1542 1536 1531 1525 1520 1515 1509 1504 1498 1493 1487 1481 1475 1469 1464 1459 1454 1448 1444 1439 1434 1430 1425 1420 1416 1414 1411 1407 1405 1403 1401 1401 1400 1398 1396 1395 1395 1396 1396 1397
1557 1552 1546 1541 1535 1529 1524 1519 1514 1508 1502 1497 1491 1486 1480 1474 1468 1463 1458 1453 1448 1444 1439 1435 1430 1425 1421 1417 1415 1413 1410 1407 1405 1404 1404 1404 1402 1400 1400 1400 1399 1399 1400
1556 1551 1545 1539 1534 1528 1523 1517 1512 1506 1500 1494 1489 1483 1478 1472 1467 1462 1456 1452 1448 1444 1439 1435 1430 1426 1422 1418 1415 1412 1411 1409 1407 1406 1405 1404 1404 1403 1403 1402 1402 1403 1404
1554 1549 1544 1538 1532 1527 1522 1516 1510 1504 1498 1492 1485 1480 1474 1469 1465 1460 1455 1450 1446 1442 1439 1435 1431 1427 1423 1419 1417 1414 1411 1408 1406 1406 1405 1404 1404 1404 1404 1405 1406 1406 1406
1554 1549 1543 1537 1531 1525 1520 1514 1508 1502 1496 1489 1483 1476 1471 1466 1460 1456 1452 1448 1444 1442 1439 1435 1432 1428 1423 1421 1419 1416 1413 1410 1406 1406 1406 1406 1407 1407 1407 1408 1408 1408 1407
1552 1548 1543 1537 1530 1524 1518 1512 1506 1500 1493 1486 1480 1474 1468 1462 1457 1452 1447 1444 1442 1439 1436 1433 1431 1428 1425 1423 1420 1417 1416 1414 1411 1409 1409 1409 1409 1409 1410 1410 1409 1409 1408